Weather in Khartoum

Sudan     15˚29′22″N   32˚34′53″E
temp.,
°C
wind,
m/s
gust,
m/s
humid.,
%
clouds,
%
prec.,
mm/h
press.,
hPa
HPBL,
m
3 december, thu
thu323:00+23˚n68130 0.0 1014167
02:00+21˚n710180 0.0 1013186
05:00+20˚n68220 0.0 1014188
08:00+22˚nne710180 0.0 1015417
11:00+28˚nne67120 0.0 1014845
14:00+32˚nne55100 0.0 10101199
17:00+30˚n45110 0.0 1010380
20:00+26˚nnw67120 0.0 1012204
4 december, fri
fri423:00+23˚n710130 0.0 1013211
02:00+21˚n69160 0.0 1011166
05:00+20˚n69170 0.0 1013187
08:00+22˚n69160 0.0 1014387
11:00+29˚nne56140 0.0 1013708
14:00+32˚n45100 0.0 10101243
17:00+30˚nnw5690 0.0 1010416
20:00+25˚nnw6994 0.0 1013225
5 december, sat
sat523:00+23˚n610110 0.0 1013205
02:00+22˚n68130 0.0 1012167
05:00+20˚n67150 0.0 1013162
08:00+23˚n69138 0.0 1015380
11:00+29˚nne671011 0.0 1014783
14:00+33˚n66613 0.0 10101310
17:00+30˚n5660 0.0 1011411
20:00+26˚n5686 0.0 1013172
6 december, sun
sun623:00+24˚n681227 0.0 1014180
02:00+22˚n681337 0.0 1013178
05:00+21˚nne68156 0.0 1014161
08:00+23˚nne711143 0.0 1016459
11:00+29˚nne68100 0.0 1014903
14:00+33˚nne6790 0.0 10111387
17:00+31˚nne56120 0.0 1010420
20:00+28˚nne67160 0.0 1013252
7 december, mon
mon723:00+25˚nne69190 0.0 1013200
02:00+24˚nne7111910 0.0 1013247
05:00+22˚ne712210 0.0 1014253
08:00+24˚ne712310 0.0 1016500
11:00+32˚ne911160 0.0 10141285
14:00+34˚ne910130 0.0 10121658
17:00+32˚ne69130 0.0 1011586
20:00+29˚nne79140 0.0 1014333